FW6498 Weather Reports


time (UTC)temp
C
wind
direction
speed
KPH
gust
KPH
rain 1hr
cm
rain 24hr
cm
rain mn
cm
humidity
%
barometer
mb
20260905211454 19 0 0.0 0.0 0.00 0.00 0.00 62 1021.6
20260905210954 19 0 0.0 0.0 0.00 0.00 0.00 62 1021.7
20260905210453 19 0 0.0 0.0 0.00 0.00 0.00 62 1021.7
20260905205954 18 0 0.0 0.0 0.00 0.00 0.00 62 1021.6
20260905205454 18 0 0.0 0.0 0.00 0.00 0.00 62 1021.6
20260905204954 18 0 0.0 0.0 0.00 0.00 0.00 61 1021.5
20260905204453 18 0 0.0 0.0 0.00 0.00 0.00 61 1021.5
20260905203954 19 0 0.0 0.0 0.00 0.00 0.00 60 1021.5
20260905202955 18 0 0.0 0.0 0.00 0.00 0.00 61 1021.3
20260905202454 18 0 0.0 0.0 0.00 0.00 0.00 61 1021.4
20260905201954 18 0 0.0 0.0 0.00 0.00 0.00 61 1021.3
20260905201453 18 0 0.0 0.0 0.00 0.00 0.00 60 1021.4
20260905200954 18 0 0.0 0.0 0.00 0.00 0.00 60 1021.3
20260905200454 18 0 0.0 0.0 0.00 0.00 0.00 61 1021.3
20260905195955 18 0 0.0 0.0 0.00 0.00 0.00 59 1021.2
20260905195454 19 0 0.0 0.0 0.00 0.00 0.00 60 1021.3
20260905194453 19 0 0.0 0.0 0.00 0.00 0.00 59 1021.3
20260905193954 19 0 0.0 0.0 0.00 0.00 0.00 58 1021.1
20260905193454 19 0 0.0 0.0 0.00 0.00 0.00 59 1021.0
20260905192955 19 0 0.0 0.0 0.00 0.00 0.00 59 1021.0
20260905192454 19 0 0.0 0.0 0.00 0.00 0.00 59 1020.9
20260905191954 19 0 0.0 0.0 0.00 0.00 0.00 57 1020.8
20260905191453 19 0 0.0 0.0 0.00 0.00 0.00 57 1020.8
20260905190955 19 0 0.0 0.0 0.00 0.00 0.00 57 1020.7
20260905190454 19 0 0.0 0.0 0.00 0.00 0.00 56 1020.7
20260905185955 20 0 0.0 0.0 0.00 0.00 0.00 55 1020.6
20260905185454 20 0 0.0 0.0 0.00 0.00 0.00 55 1020.5
20260905184453 20 0 0.0 0.0 0.00 0.00 0.00 52 1020.4
20260905183955 21 0 0.0 0.0 0.00 0.00 0.00 51 1020.4
20260905183454 21 0 0.0 0.0 0.00 0.00 0.00 51 1020.3
20260905182955 21 0 0.0 0.0 0.00 0.00 0.00 50 1020.4
20260905182453 21 0 0.0 0.0 0.00 0.00 0.00 49 1020.3
20260905181955 21 0 0.0 0.0 0.00 0.00 0.00 48 1020.2
20260905181453 22 0 0.0 0.0 0.00 0.00 0.00 48 1020.2
20260905180955 22 0 0.0 0.0 0.00 0.00 0.00 47 1020.1
20260905180454 22 0 0.0 0.0 0.00 0.00 0.00 47 1020.2
20260905175954 22 333 0.0 1.6 0.00 0.00 0.00 47 1020.0
20260905174955 22 328 0.0 8.0 0.00 0.00 0.00 46 1019.9
20260905174454 22 329 0.0 8.0 0.00 0.00 0.00 46 1019.9
20260905173454 22 333 0.0 1.6 0.00 0.00 0.00 44 1019.6
20260905171454 23 305 1.6 22.5 0.00 0.00 0.00 43 1019.5
20260905170955 23 312 1.6 22.5 0.00 0.00 0.00 43 1019.5
20260905170453 23 319 0.0 14.5 0.00 0.00 0.00 42 1019.5
20260905165955 23 320 0.0 14.5 0.00 0.00 0.00 43 1019.3
20260905165454 24 331 0.0 6.4 0.00 0.00 0.00 43 1019.3
20260905164955 24 321 0.0 11.3 0.00 0.00 0.00 43 1019.3
20260905164453 24 321 0.0 11.3 0.00 0.00 0.00 42 1019.2
20260905163954 24 332 1.6 17.7 0.00 0.00 0.00 42 1019.1
20260905163454 25 330 4.8 20.9 0.00 0.00 0.00 41 1019.1
20260905162954 25 328 4.8 20.9 0.00 0.00 0.00 41 1019.1
20260905162453 25 326 1.6 20.9 0.00 0.00 0.00 41 1019.0
20260905161454 25 325 4.8 24.1 0.00 0.00 0.00 41 1018.8
20260905160955 25 320 3.2 24.1 0.00 0.00 0.00 41 1018.8
20260905160453 25 320 4.8 24.1 0.00 0.00 0.00 40 1018.5
20260905155955 26 327 1.6 24.1 0.00 0.00 0.00 40 1018.4
20260905154955 26 301 1.6 11.3 0.00 0.00 0.00 40 1018.4
20260905154453 26 295 3.2 22.5 0.00 0.00 0.00 40 1018.3
20260905153955 26 291 4.8 22.5 0.00 0.00 0.00 39 1018.4
20260905153453 26 296 3.2 17.7 0.00 0.00 0.00 40 1018.5
20260905152954 26 324 3.2 20.9 0.00 0.00 0.00 39 1018.3
20260905152454 26 330 3.2 20.9 0.00 0.00 0.00 40 1018.3
20260905151955 26 287 1.6 20.9 0.00 0.00 0.00 40 1018.5
20260905150955 26 284 3.2 19.3 0.00 0.00 0.00 42 1018.5
20260905145955 26 288 1.6 20.9 0.00 0.00 0.00 40 1018.5
20260905145453 26 278 1.6 19.3 0.00 0.00 0.00 40 1018.5
20260905144954 26 276 3.2 20.9 0.00 0.00 0.00 40 1018.6
20260905144454 26 291 6.4 20.9 0.00 0.00 0.00 40 1018.6
20260905143955 26 284 6.4 22.5 0.00 0.00 0.00 40 1018.7
20260905142954 27 307 0.0 12.9 0.00 0.00 0.00 40 1018.6
20260905141454 27 273 1.6 14.5 0.00 0.00 0.00 41 1018.5
20260905140955 27 336 0.0 11.3 0.00 0.00 0.00 44 1018.6
20260905140454 27 321 0.0 11.3 0.00 0.00 0.00 46 1018.6
20260905135954 27 278 1.6 14.5 0.00 0.00 0.00 45 1018.7
20260905134955 26 340 1.6 17.7 0.00 0.00 0.00 45 1018.8
20260905133955 26 354 0.0 19.3 0.00 0.00 0.00 46 1018.7
20260905133454 26 355 0.0 19.3 0.00 0.00 0.00 47 1018.9
20260905132955 26 336 1.6 17.7 0.00 0.00 0.00 46 1018.8
20260905132454 26 333 1.6 17.7 0.00 0.00 0.00 45 1018.8
20260905131955 26 332 1.6 17.7 0.00 0.00 0.00 45 1018.8
20260905130955 26 331 6.4 22.5 0.00 0.00 0.00 45 1019.0
20260905125955 26 319 1.6 24.1 0.00 0.00 0.00 46 1019.0
20260905125454 25 309 1.6 19.3 0.00 0.00 0.00 46 1019.0
20260905124955 25 299 1.6 16.1 0.00 0.00 0.00 48 1019.0
20260905123954 25 275 0.0 6.4 0.00 0.00 0.00 49 1019.1
20260905123454 25 310 0.0 16.1 0.00 0.00 0.00 47 1019.2
20260905122454 25 321 3.2 22.5 0.00 0.00 0.00 48 1019.2
20260905121955 25 331 4.8 22.5 0.00 0.00 0.00 48 1019.1
20260905121454 25 340 1.6 20.9 0.00 0.00 0.00 49 1019.1
20260905120955 25 327 1.6 8.0 0.00 0.00 0.00 50 1019.2
20260905115955 25 331 1.6 17.7 0.00 0.00 0.00 50 1019.3
20260905114955 24 329 1.6 16.1 0.00 0.00 0.00 51 1019.3
20260905113954 24 308 1.6 6.4 0.00 0.00 0.00 50 1019.4
20260905113454 25 330 1.6 19.3 0.00 0.00 0.00 50 1019.4
20260905112955 25 331 1.6 19.3 0.00 0.00 0.00 51 1019.4
20260905112453 25 333 1.6 16.1 0.00 0.00 0.00 52 1019.5
20260905111955 24 336 3.2 20.9 0.00 0.00 0.00 53 1019.5
20260905111454 24 335 3.2 20.9 0.00 0.00 0.00 53 1019.7
20260905110454 23 317 0.0 11.3 0.00 0.00 0.00 55 1019.5
20260905105956 23 319 1.6 16.1 0.00 0.00 0.00 55 1019.5
20260905105454 22 321 1.6 16.1 0.00 0.00 0.00 56 1019.5
20260905104955 22 325 0.0 16.1 0.00 0.00 0.00 58 1019.8
20260905104454 22 306 0.0 1.6 0.00 0.00 0.00 59 1019.4
20260905103454 21 273 0.0 1.6 0.00 0.00 0.00 62 1019.6
20260905102955 21 337 0.0 1.6 0.00 0.00 0.00 62 1019.7
20260905101454 21 297 0.0 6.4 0.00 0.00 0.00 64 1019.9
20260905100955 20 297 0.0 6.4 0.00 0.00 0.00 65 1019.8
20260905100455 20 259 0.0 1.6 0.00 0.00 0.00 67 1019.8
20260905095454 20 174 0.0 1.6 0.00 0.00 0.00 71 1020.0
20260905094955 19 205 0.0 1.6 0.00 0.00 0.00 74 1019.9
20260905094455 18 0 0.0 0.0 0.00 0.00 0.00 76 1020.0
20260905093454 18 191 0.0 1.6 0.00 0.00 0.00 77 1020.1
20260905092955 18 127 0.0 1.6 0.00 0.00 0.00 80 1020.1
20260905092455 18 127 0.0 1.6 0.00 0.00 0.00 79 1020.1
20260905091955 18 0 0.0 0.0 0.00 0.00 0.00 80 1020.2
20260905091454 18 121 0.0 1.6 0.00 0.00 0.00 81 1020.3
20260905090955 18 119 0.0 3.2 0.00 0.00 0.00 80 1020.5
20260905090454 18 115 0.0 3.2 0.00 0.00 0.00 81 1020.6
20260905085453 18 0 0.0 0.0 0.00 0.00 0.00 82 1020.3
20260905084955 18 109 0.0 1.6 0.00 0.00 0.00 82 1020.3
20260905083955 18 142 0.0 1.6 0.00 0.00 0.00 82 1020.6
20260905083454 18 130 0.0 1.6 0.00 0.00 0.00 81 1020.5
20260905082955 18 0 0.0 0.0 0.00 0.00 0.00 81 1020.2
20260905082455 18 0 0.0 0.0 0.00 0.00 0.00 80 1020.5
20260905081955 18 281 0.0 1.6 0.00 0.00 0.00 78 1020.4
20260905081454 18 281 0.0 1.6 0.00 0.00 0.00 78 1020.2
20260905080454 19 28 0.0 1.6 0.00 0.00 0.00 75 1018.7
20260905075955 19 28 0.0 1.6 0.00 0.00 0.00 74 1018.2
20260905075454 19 0 0.0 0.0 0.00 0.00 0.00 72 1018.2
20260905074956 20 0 0.0 0.0 0.00 0.00 0.00 70 1018.8
20260905074454 20 0 0.0 0.0 0.00 0.00 0.00 67 1019.2
20260905073955 19 0 0.0 0.0 0.00 0.00 0.00 67 1019.7
20260905073454 20 0 0.0 0.0 0.00 0.00 0.00 66 1019.9
20260905072955 20 0 0.0 0.0 0.00 0.00 0.00 66 1018.9
20260905072455 20 0 0.0 0.0 0.00 0.00 0.00 66 1018.9
20260905070955 19 0 0.0 0.0 0.00 0.00 0.00 65 1019.6
20260905070454 19 321 1.6 20.9 0.00 0.00 0.00 64 1019.5
20260905065956 19 337 4.8 20.9 0.00 0.00 0.00 63 1019.0
20260905064955 20 351 1.6 19.3 0.00 0.00 0.00 62 1017.7
20260905064454 20 342 0.0 16.1 0.00 0.00 0.00 61 1019.1
20260905063955 20 341 1.6 17.7 0.00 0.00 0.00 59 1019.4
20260905062955 20 343 0.0 6.4 0.00 0.00 0.00 61 1018.6
20260905062454 20 343 0.0 14.5 0.00 0.00 0.00 62 1018.2
20260905061955 20 341 1.6 14.5 0.00 0.00 0.00 62 1018.1
20260905060955 20 342 1.6 20.9 0.00 0.00 0.00 61 1017.8
20260905060454 20 342 3.2 20.9 0.00 0.00 0.00 61 1017.9
20260905055955 20 344 1.6 16.1 0.00 0.00 0.00 63 1017.8
20260905054955 20 335 4.8 25.7 0.00 0.00 0.00 64 1017.8
20260905053955 21 347 3.2 24.1 0.00 0.00 0.00 64 1018.0
20260905053454 21 336 1.6 22.5 0.00 0.00 0.00 65 1017.9
20260905052955 21 337 0.0 6.4 0.00 0.00 0.00 64 1017.9
20260905052455 21 354 0.0 16.1 0.00 0.00 0.00 63 1017.7
20260905051956 21 344 1.6 17.7 0.00 0.00 0.00 63 1017.7
20260905050955 21 342 0.0 19.3 0.00 0.00 0.00 64 1017.2
20260905050454 21 330 4.8 32.2 0.00 0.00 0.00 65 1017.1
20260905045956 21 330 8.0 32.2 0.00 0.00 0.00 65 1017.2
20260905044955 21 333 1.6 12.9 0.00 0.00 0.00 66 1016.2
20260905044454 21 340 0.0 12.9 0.00 0.00 0.00 67 1016.0
20260905043955 21 336 0.0 11.3 0.00 0.00 0.00 67 1015.8
20260905043455 21 334 0.0 11.3 0.00 0.00 0.00 67 1015.9
20260905042955 21 334 0.0 9.7 0.00 0.00 0.00 67 1015.8
20260905042454 21 335 0.0 6.4 0.00 0.00 0.00 67 1016.0
20260905041955 21 338 0.0 6.4 0.00 0.00 0.00 67 1015.8
20260905041455 21 0 0.0 0.0 0.00 0.00 0.00 67 1015.3
20260905040956 21 339 0.0 3.2 0.00 0.00 0.00 66 1015.2
20260905040454 21 330 0.0 16.1 0.00 0.00 0.00 66 1014.8
20260905035955 21 331 1.6 16.1 0.00 0.00 0.00 66 1014.8
20260905035454 21 339 0.0 6.4 0.00 0.00 0.00 66 1014.9
20260905034955 21 351 0.0 9.7 0.00 0.00 0.00 66 1014.5
20260905034455 21 345 0.0 9.7 0.00 0.00 0.00 66 1014.3
20260905033955 21 327 0.0 4.8 0.00 0.00 0.00 65 1014.3
20260905033454 21 352 0.0 11.3 0.00 0.00 0.00 65 1014.1
20260905032955 21 347 0.0 11.3 0.00 0.00 0.00 65 1014.0
20260905031455 21 335 0.0 14.5 0.00 0.00 0.00 64 1014.0
20260905030956 21 347 0.0 6.4 0.00 0.00 0.00 65 1013.8
20260905030454 21 350 0.0 6.4 0.00 0.00 0.00 65 1013.7
20260905025454 21 339 1.6 16.1 0.00 0.00 0.00 67 1013.7
20260905024955 21 340 0.0 16.1 0.00 0.00 0.00 68 1013.6
20260905024455 21 339 0.0 11.3 0.00 0.00 0.00 69 1013.8
20260905023454 20 297 0.0 6.4 0.00 0.00 0.00 71 1013.8
20260905022955 20 327 0.0 6.4 0.00 0.00 0.00 71 1013.4
20260905022455 20 339 0.0 6.4 0.00 0.00 0.00 73 1013.7
20260905021956 20 0 0.0 0.0 0.00 0.00 0.00 73 1013.4
20260905021455 20 0 0.0 0.0 0.00 0.00 0.00 74 1013.3
20260905020955 20 0 0.0 0.0 0.00 0.00 0.00 73 1013.4
20260905015955 20 0 0.0 0.0 0.00 0.00 0.00 73 1013.3
20260905015454 20 0 0.0 0.0 0.00 0.00 0.00 72 1013.4
20260905014956 20 0 0.0 0.0 0.00 0.00 0.00 72 1013.5
20260905014455 20 0 0.0 0.0 0.00 0.00 0.00 71 1013.5
20260905013956 20 0 0.0 0.0 0.00 0.00 0.00 72 1013.2
20260905013454 20 0 0.0 0.0 0.00 0.00 0.00 72 1013.2
20260905012955 20 0 0.0 0.0 0.00 0.00 0.00 71 1013.2
20260905012454 20 0 0.0 0.0 0.00 0.00 0.00 71 1012.9
20260905011956 20 0 0.0 0.0 0.00 0.00 0.00 72 1012.9
20260905011456 20 0 0.0 0.0 0.00 0.00 0.00 72 1012.9
20260905010956 20 0 0.0 0.0 0.00 0.00 0.00 73 1013.0
20260905010454 20 0 0.0 0.0 0.00 0.00 0.00 73 1013.0
20260905005955 20 0 0.0 0.0 0.00 0.00 0.00 73 1013.0
20260905005454 20 0 0.0 0.0 0.00 0.00 0.00 73 1012.9
20260905004956 20 0 0.0 0.0 0.00 0.00 0.00 73 1012.9
20260905004454 20 0 0.0 0.0 0.00 0.00 0.00 73 1012.8
20260905003454 20 0 0.0 0.0 0.00 0.00 0.00 73 1012.8
20260905002455 20 137 0.0 1.6 0.00 0.00 0.00 72 1012.5
20260905001956 20 0 0.0 0.0 0.00 0.00 0.00 71 1012.6
20260905001455 20 0 0.0 0.0 0.00 0.00 0.00 71 1012.7
20260905000955 20 0 0.0 0.0 0.00 0.00 0.00 71 1012.5
20260905000454 20 0 0.0 0.0 0.00 0.00 0.00 71 1012.6
20260904235955 20 0 0.0 0.0 0.00 0.00 0.00 70 1012.5
20260904235455 20 0 0.0 0.0 0.00 0.00 0.00 70 1012.6
20260904234455 20 0 0.0 0.0 0.00 0.03 0.00 70 1012.7
20260904233955 20 0 0.0 0.0 0.00 0.03 0.00 71 1012.7
20260904232956 20 0 0.0 0.0 0.00 0.03 0.00 71 1012.5
20260904232455 20 0 0.0 0.0 0.00 0.03 0.00 71 1012.7
20260904231454 20 0 0.0 0.0 0.00 0.03 0.00 70 1012.5
20260904230956 20 0 0.0 0.0 0.00 0.03 0.00 70 1012.5
20260904230455 20 0 0.0 0.0 0.00 0.03 0.00 70 1012.6
20260904225956 20 0 0.0 0.0 0.00 0.03 0.00 70 1012.7
20260904225454 20 0 0.0 0.0 0.00 0.03 0.00 70 1012.7
20260904224955 20 0 0.0 0.0 0.00 0.03 0.00 70 1012.7
20260904224454 20 0 0.0 0.0 0.00 0.03 0.00 70 1012.6
20260904223455 20 0 0.0 0.0 0.00 0.03 0.00 71 1012.6
20260904222956 19 0 0.0 0.0 0.00 0.03 0.00 71 1012.5
20260904222455 20 0 0.0 0.0 0.00 0.03 0.00 70 1012.5
20260904221956 20 135 0.0 1.6 0.00 0.03 0.00 70 1012.6
20260904221455 20 135 0.0 1.6 0.00 0.03 0.00 69 1012.6
20260904220956 20 0 0.0 0.0 0.00 0.03 0.00 69 1012.6
20260904220455 20 134 0.0 1.6 0.00 0.03 0.00 69 1012.6
20260904215955 20 134 0.0 1.6 0.00 0.03 0.00 69 1012.5
20260904215455 20 0 0.0 0.0 0.00 0.03 0.03 68 1012.7
20260904214956 21 0 0.0 0.0 0.00 0.03 0.03 68 1012.7
20260904214454 21 134 0.0 1.6 0.00 0.03 0.03 68 1012.6
20260904213955 21 134 0.0 1.6 0.00 0.03 0.03 67 1012.6
20260904212956 21 0 0.0 0.0 0.00 0.03 0.03 67 1012.6
20260904211956 21 0 0.0 0.0 0.00 0.03 0.03 66 1012.7